Location: Miami, Florida
(25.6830°N, 80.1700°W)
Time: 23:08:45
(UTC-04:00)

OTV 5 (USA 277) - Visible Passes

Search period start: 20 February 2018 00:00
Search period end: 02 March 2018 00:00
Orbit: 404 x 417 km, 43.0° (Epoch: 07 September)

Date Brightness Start Highest point End Pass type
(mag) Time Alt. Az. Time Alt. Az. Time Alt. Az.
20 Feb ? 06:22:58 40° NNE 06:22:58 40° NNE 06:25:21 10° NE visible
21 Feb ? 07:07:29 11° NW 07:08:40 13° NNW 07:10:16 10° N visible
22 Feb ? 06:19:05 14° N 06:19:05 14° N 06:19:53 10° NNE visible
